Location: Borgo
(42.3939°N, 9.2791°E)
Time: 19:10:07
(UTC+00:00)

Meteor 2-10 Rocket - Pass Details

Date: 24 January 2021
Orbit: 733 x 885 km, 81.2° (Epoch: 02 March)

Event Time Altitude Azimuth Distance (km) Brightness Sun altitude
Rises 16:49:35 0° 353° (N) 3,375 6.7 -4.7°
Reaches altitude 10° 16:52:05 10° 357° (N) 2,414 5.9 -5.1°
Maximum altitude 16:57:28 61° 77° (ENE) 894 3.6 -6.1°
Drops below altitude 10° 17:02:35 10° 158° (SSE) 2,300 6.0 -7.0°
Sets 17:04:55 0° 162° (SSE) 3,202 6.7 -7.4°
